Plattsburgh, NY

10:15 AM EDT on September 26, 2016 (GMT -0400)
Plattsburgh International

Weather History for KPBG - November, 2013

Change the Weather History Date:

Thursday, November 28, 2013

  Actual Average Record
Temperature  
Mean Temperature 20 °F 32 °F  
Max Temperature 27 °F 40 °F 69 °F (1990)
Min Temperature 12 °F 23 °F 0 °F (1949)
Degree Days  
Heating Degree Days 45 33  
Month to date heating degree days 833 782  
Since 1 July heating degree days 1609 1565  
Cooling Degree Days 0 0  
Month to date cooling degree days 0  
Year to date cooling degree days 346  
Moisture  
Dew Point 9 °F    
Average Humidity 63    
Maximum Humidity 84    
Minimum Humidity 42    
Precipitation  
Precipitation 0.00 in - 1.17 in (1959)
Month to date precipitation 1.88  
Year to date precipitation 30.58  
Sea Level Pressure  
Sea Level Pressure 30.07 in    
Wind  
Wind Speed 6 mph (West)    
Max Wind Speed 16 mph    
Max Gust Speed 25 mph    
Visibility 10 miles    
Events      
T = Trace of Precipitation, MM = Missing Value Source: NWS Daily Summary

Daily Weather History Graph

Daily Weather History Graph

Search for Another Location

Airport or City:

Trip Planner

Search our weather history database for the weather conditions in past years. The results will help you decide how hot, cold, wet, or windy it might be!

Date:

Astronomy

Nov. 28, 2013 Rise Set
Actual Time 7:07 AM EST 4:16 PM EST
Civil Twilight 6:34 AM EST 4:48 PM EST
Nautical Twilight 5:58 AM EST 5:25 PM EST
Astronomical Twilight 5:23 AM EST 6:00 PM EST
Moon 1:56 AM EST (11/28) 1:33 PM EST (11/28)
Length of Visible Light 10h 13m
Length of Day
9h 08m
Waning Crescent, 22% of the Moon is Illuminated
Nov 28
Waning Crescent
Dec 2
New
Dec 9
First Quarter
Dec 17
Full
Dec 25
Last Quarter

Hourly Weather History & Observations

Time (EST) Temp. Windchill Dew Point Humidity Pressure Visibility Wind Dir Wind Speed Gust Speed Precip Events Conditions
12:53 AM 25.0 °F 15.5 °F 17.1 °F 72% 29.62 in 10.0 mi West 9.2 mph 18.4 mph N/A   Overcast
1:37 AM 24.8 °F 17.9 °F 15.8 °F 69% 29.63 in 10.0 mi Variable 5.8 mph 17.3 mph N/A   Overcast
1:53 AM 24.1 °F 18.2 °F 15.1 °F 69% 29.66 in 10.0 mi West 4.6 mph 16.1 mph N/A   Overcast
2:17 AM 23.0 °F 13.9 °F 14.0 °F 68% 29.66 in 10.0 mi West 8.1 mph 17.3 mph N/A   Scattered Clouds
2:53 AM 23.0 °F 12.4 °F 12.9 °F 65% 29.69 in 10.0 mi WNW 10.4 mph - N/A   Mostly Cloudy
3:53 AM 21.9 °F 11.7 °F 10.9 °F 63% 29.73 in 10.0 mi West 9.2 mph 24.2 mph N/A   Overcast
4:53 AM 19.9 °F 8.6 °F 9.0 °F 62% 29.79 in 10.0 mi WNW 10.4 mph 17.3 mph N/A   Overcast
5:53 AM 19.0 °F 10.0 °F 7.0 °F 59% 29.88 in 10.0 mi Variable 6.9 mph - N/A   Clear
6:53 AM 18.0 °F 9.8 °F 5.0 °F 57% 29.95 in 10.0 mi Variable 5.8 mph - N/A   Clear
7:53 AM 19.0 °F 12.3 °F 6.1 °F 57% 30.02 in 10.0 mi Variable 4.6 mph - N/A   Partly Cloudy
8:53 AM 21.0 °F 13.4 °F 8.1 °F 57% 30.06 in 10.0 mi Variable 5.8 mph - N/A   Mostly Cloudy
9:53 AM 21.9 °F 9.2 °F 8.1 °F 55% 30.09 in 10.0 mi West 13.8 mph 23.0 mph N/A   Clear
10:53 AM 23.0 °F 13.1 °F 9.0 °F 55% 30.12 in 10.0 mi West 9.2 mph 17.3 mph N/A   Clear
11:53 AM 24.1 °F 13.7 °F 8.1 °F 51% 30.13 in 10.0 mi West 10.4 mph 24.2 mph N/A   Clear
12:53 PM 26.1 °F 14.5 °F 7.0 °F 44% 30.16 in 10.0 mi NW 13.8 mph 19.6 mph N/A   Clear
1:53 PM 25.0 °F 15.5 °F 7.0 °F 46% 30.19 in 10.0 mi West 9.2 mph 17.3 mph N/A   Clear
2:53 PM 24.1 °F 14.4 °F 7.0 °F 48% 30.24 in 10.0 mi West 9.2 mph 17.3 mph N/A   Partly Cloudy
3:53 PM 21.9 °F 15.7 °F 6.1 °F 51% 30.28 in 10.0 mi Variable 4.6 mph - N/A   Clear
4:53 PM 19.9 °F - 7.0 °F 57% 30.30 in 10.0 mi Calm Calm - N/A   Clear
5:53 PM 19.9 °F - 9.0 °F 62% 30.33 in 10.0 mi Calm Calm - N/A   Clear
6:53 PM 17.1 °F - 9.0 °F 71% 30.36 in 10.0 mi Calm Calm - N/A   Clear
7:53 PM 16.0 °F - 9.0 °F 74% 30.37 in 10.0 mi Calm Calm - N/A   Clear
8:53 PM 12.9 °F - 9.0 °F 84% 30.40 in 10.0 mi Calm Calm - N/A   Clear
9:53 PM 12.0 °F - 9.0 °F 88% 30.41 in 10.0 mi Calm Calm - N/A   Clear
10:53 PM 15.1 °F - 9.0 °F 77% 30.43 in 10.0 mi Calm Calm - N/A   Clear
11:53 PM 12.0 °F - 7.0 °F 80% 30.44 in 10.0 mi Calm Calm - N/A   Clear